When you browse on this site, cookies collect data to enhance your experience and personalize the content and advertising you see.
Visit our Privacy Policy to learn more. By continuing to use the site, you agree to this use of cookies and data.
  • In Romania
  • List of Countries
  • For 7 days
  • Water Temperature
  • Satellite Maps
  • Weather Map
  • Weather Widgets
  • user-avatar
    Login

    Hourly Weather Arredondo

    Today, 21 July, Sunday

    Time Temperature Precipitation Wind Pressure Humidity
    00:00 +18°C° 0 mm 1 mps 714 mmHg 98%
    01:00 +18°C° 0 mm 1 mps 714 mmHg 98%
    02:00 +18°C° 0 mm 1 mps 713 mmHg 98%
    03:00 +16°C° 0 mm 0 mps 713 mmHg 98%
    04:00 +18°C° 0 mm 1 mps 713 mmHg 97%
    05:00 +18°C° 0 mm 1 mps 713 mmHg 97%
    06:00 +18°C° 0 mm 1 mps 713 mmHg 97%
    07:00 +18°C° 0 mm 1 mps 713 mmHg 96%
    08:00 +19°C° 0 mm 1 mps 714 mmHg 94%
    09:00 +19°C° 0 mm 1 mps 714 mmHg 93%
    10:00 +19°C° 0.1 mm 2 mps 714 mmHg 89%
    11:00 +20°C° 0.1 mm 2 mps 714 mmHg 84%
    12:00 +21°C° 0.1 mm 2 mps 714 mmHg 80%
    13:00 +23°C° 0 mm 2 mps 714 mmHg 75%
    14:00 +25°C° 0 mm 2 mps 714 mmHg 70%
    15:00 +26°C° 0 mm 3 mps 714 mmHg 66%
    16:00 +25°C° 0 mm 3 mps 713 mmHg 71%
    17:00 +23°C° 0 mm 2 mps 713 mmHg 77%
    18:00 +21°C° 0 mm 2 mps 713 mmHg 83%
    19:00 +20°C° 0 mm 2 mps 714 mmHg 88%
    20:00 +19°C° 0 mm 1 mps 714 mmHg 93%
    21:00 +18°C° 0 mm 1 mps 715 mmHg 98%
    22:00 +18°C° 0 mm 1 mps 715 mmHg 97%
    23:00 +18°C° 0 mm 1 mps 715 mmHg 96%

    Tomorrow, 22 July, Monday

    Time Temperature Precipitation Wind Pressure Humidity
    00:00 +19°C° 0 mm 1 mps 715 mmHg 96%
    01:00 +18°C° 0 mm 1 mps 714 mmHg 96%
    02:00 +18°C° 0 mm 1 mps 714 mmHg 96%
    03:00 +18°C° 0 mm 1 mps 714 mmHg 97%
    04:00 +18°C° 0 mm 1 mps 714 mmHg 96%
    05:00 +18°C° 0 mm 1 mps 713 mmHg 95%
    06:00 +19°C° 0 mm 1 mps 713 mmHg 94%
    07:00 +22°C° 0 mm 1 mps 713 mmHg 82%
    08:00 +25°C° 0 mm 2 mps 714 mmHg 69%
    09:00 +28°C° 0 mm 2 mps 714 mmHg 57%
    10:00 +29°C° 0 mm 2 mps 714 mmHg 52%
    11:00 +31°C° 0 mm 2 mps 714 mmHg 47%
    12:00 +34°C° 0 mm 2 mps 714 mmHg 42%
    13:00 +34°C° 0 mm 3 mps 713 mmHg 43%
    14:00 +33°C° 0 mm 3 mps 713 mmHg 44%
    15:00 +33°C° 0 mm 3 mps 712 mmHg 45%
    16:00 +31°C° 0 mm 2 mps 712 mmHg 51%
    17:00 +29°C° 0 mm 2 mps 712 mmHg 57%
    18:00 +28°C° 0 mm 2 mps 712 mmHg 63%
    19:00 +26°C° 0.1 mm 2 mps 712 mmHg 69%
    20:00 +24°C° 0.1 mm 1 mps 711 mmHg 75%
    21:00 +22°C° 0.1 mm 1 mps 711 mmHg 81%
    22:00 +22°C° 0 mm 1 mps 711 mmHg 76%
    23:00 +22°C° 0 mm 1 mps 711 mmHg 71%

    Day after tomorrow, 23 July, Tuesday

    Time Temperature Precipitation Wind Pressure Humidity
    00:00 +22°C° 0 mm 1 mps 710 mmHg 66%
    01:00 +22°C° 0 mm 1 mps 710 mmHg 64%
    02:00 +22°C° 0 mm 1 mps 710 mmHg 61%
    03:00 +23°C° 0 mm 2 mps 710 mmHg 59%
    04:00 +23°C° 0 mm 2 mps 710 mmHg 57%
    05:00 +23°C° 0 mm 2 mps 709 mmHg 55%
    06:00 +23°C° 0 mm 2 mps 709 mmHg 53%
    07:00 +26°C° 0 mm 2 mps 709 mmHg 46%
    08:00 +28°C° 0 mm 2 mps 710 mmHg 39%
    09:00 +31°C° 0 mm 2 mps 710 mmHg 32%
    10:00 +34°C° 0 mm 2 mps 710 mmHg 29%
    11:00 +36°C° 0 mm 3 mps 710 mmHg 27%
    12:00 +38°C° 0 mm 3 mps 710 mmHg 24%
    13:00 +37°C° 0 mm 3 mps 710 mmHg 30%
    14:00 +35°C° 0 mm 3 mps 709 mmHg 35%
    15:00 +33°C° 0 mm 4 mps 709 mmHg 40%
    16:00 +28°C° 2.1 mm 3 mps 709 mmHg 57%
    17:00 +25°C° 2.1 mm 3 mps 708 mmHg 74%
    18:00 +20°C° 2.1 mm 3 mps 708 mmHg 90%
    19:00 +19°C° 0.3 mm 2 mps 709 mmHg 91%
    20:00 +19°C° 0.3 mm 2 mps 709 mmHg 91%
    21:00 +19°C° 0.3 mm 2 mps 710 mmHg 92%
    22:00 +18°C° 0.1 mm 2 mps 710 mmHg 93%
    23:00 +19°C° 0.1 mm 1 mps 710 mmHg 94%

    24 July, Wednesday

    Time Temperature Precipitation Wind Pressure Humidity
    00:00 +18°C° 0.1 mm 1 mps 710 mmHg 95%
    01:00 +18°C° 0 mm 1 mps 709 mmHg 94%
    02:00 +18°C° 0 mm 1 mps 709 mmHg 94%
    03:00 +18°C° 0 mm 1 mps 709 mmHg 94%
    04:00 +18°C° 0 mm 1 mps 708 mmHg 93%
    05:00 +19°C° 0 mm 1 mps 708 mmHg 92%
    06:00 +19°C° 0 mm 1 mps 708 mmHg 90%
    07:00 +22°C° 0 mm 1 mps 709 mmHg 78%
    08:00 +25°C° 0 mm 1 mps 709 mmHg 66%
    09:00 +28°C° 0 mm 1 mps 709 mmHg 53%
    10:00 +31°C° 0 mm 2 mps 709 mmHg 44%
    11:00 +35°C° 0 mm 2 mps 709 mmHg 35%
    12:00 +37°C° 0 mm 2 mps 709 mmHg 25%
    13:00 +37°C° 0 mm 2 mps 708 mmHg 26%
    14:00 +37°C° 0 mm 2 mps 707 mmHg 27%
    15:00 +37°C° 0 mm 2 mps 707 mmHg 28%
    16:00 +35°C° 0 mm 2 mps 706 mmHg 38%
    17:00 +31°C° 0 mm 1 mps 706 mmHg 48%
    18:00 +28°C° 0 mm 1 mps 705 mmHg 58%
    19:00 +27°C° 0 mm 1 mps 705 mmHg 59%
    20:00 +26°C° 0 mm 1 mps 705 mmHg 60%
    21:00 +24°C° 0 mm 1 mps 705 mmHg 61%
    22:00 +23°C° 0 mm 1 mps 705 mmHg 65%
    23:00 +22°C° 0 mm 1 mps 705 mmHg 69%

    25 July, Thursday

    Time Temperature Precipitation Wind Pressure Humidity
    00:00 +20°C° 0 mm 2 mps 705 mmHg 73%
    01:00 +20°C° 0 mm 2 mps 705 mmHg 64%
    02:00 +21°C° 0 mm 2 mps 705 mmHg 55%
    03:00 +23°C° 0 mm 1 mps 705 mmHg 47%
    04:00 +22°C° 0 mm 1 mps 705 mmHg 50%
    05:00 +22°C° 0 mm 1 mps 706 mmHg 54%
    06:00 +21°C° 0 mm 1 mps 706 mmHg 57%
    07:00 +24°C° 0 mm 1 mps 706 mmHg 50%
    08:00 +26°C° 0 mm 1 mps 707 mmHg 43%
    09:00 +29°C° 0 mm 1 mps 707 mmHg 36%
    10:00 +29°C° 0 mm 2 mps 708 mmHg 35%
    11:00 +30°C° 0 mm 2 mps 708 mmHg 35%
    12:00 +31°C° 0 mm 3 mps 708 mmHg 34%
    13:00 +29°C° 0 mm 3 mps 708 mmHg 45%
    14:00 +26°C° 0 mm 3 mps 707 mmHg 57%
    15:00 +24°C° 0 mm 3 mps 707 mmHg 69%
    16:00 +21°C° 0.1 mm 3 mps 707 mmHg 77%
    17:00 +20°C° 0.1 mm 3 mps 708 mmHg 85%
    18:00 +18°C° 0.1 mm 2 mps 708 mmHg 94%
    19:00 +17°C° 0.3 mm 2 mps 709 mmHg 95%
    20:00 +16°C° 0.3 mm 2 mps 709 mmHg 96%
    21:00 +16°C° 0.3 mm 2 mps 710 mmHg 97%
    22:00 +16°C° 0.5 mm 2 mps 710 mmHg 97%
    23:00 +15°C° 0.5 mm 2 mps 710 mmHg 97%

    26 July, Friday

    Time Temperature Precipitation Wind Pressure Humidity
    00:00 +15°C° 0.5 mm 1 mps 711 mmHg 98%
    01:00 +15°C° 0.3 mm 1 mps 711 mmHg 97%
    02:00 +15°C° 0.3 mm 1 mps 711 mmHg 97%
    03:00 +15°C° 0.3 mm 1 mps 711 mmHg 97%
    04:00 +15°C° 0.2 mm 1 mps 711 mmHg 97%
    05:00 +15°C° 0.2 mm 1 mps 711 mmHg 97%
    06:00 +15°C° 0.2 mm 1 mps 711 mmHg 96%
    07:00 +15°C° 0.2 mm 2 mps 712 mmHg 94%
    08:00 +16°C° 0.2 mm 2 mps 712 mmHg 91%
    09:00 +17°C° 0.2 mm 2 mps 712 mmHg 89%
    10:00 +17°C° 0.3 mm 2 mps 712 mmHg 88%
    11:00 +17°C° 0.3 mm 2 mps 712 mmHg 87%
    12:00 +17°C° 0.3 mm 2 mps 713 mmHg 86%
    13:00 +17°C° 0.1 mm 2 mps 712 mmHg 85%
    14:00 +17°C° 0.1 mm 2 mps 712 mmHg 84%
    15:00 +17°C° 0.1 mm 2 mps 712 mmHg 83%
    16:00 +17°C° 0 mm 2 mps 712 mmHg 82%
    17:00 +17°C° 0 mm 2 mps 713 mmHg 80%
    18:00 +18°C° 0 mm 1 mps 713 mmHg 78%
    19:00 +16°C° 0 mm 1 mps 713 mmHg 82%
    20:00 +15°C° 0 mm 1 mps 713 mmHg 86%
    21:00 +13°C° 0 mm 0 mps 713 mmHg 90%
    22:00 +12°C° 0 mm 0 mps 713 mmHg 91%
    23:00 +13°C° 0 mm 1 mps 713 mmHg 92%
    Show more